Weather History for Nome, AK

Change the Weather History Date:

Tuesday, November 23, 2010

  Actual Average Record
Temperature  
Mean Temperature 27 °F 15 °F  
Max Temperature 30 °F 21 °F 44 °F (1947)
Min Temperature 24 °F - -24 °F (1918)
Degree Days  
Heating Degree Days 38 50  
Month to date heating degree days 1018 1082  
Since 1 July heating degree days 3400 3737  
Cooling Degree Days 0    
Month to date cooling degree days 0  
Year to date cooling degree days 2  
Moisture  
Dew Point 21 °F    
Average Humidity 0    
Maximum Humidity 0    
Minimum Humidity 0    
Precipitation  
Precipitation 0.00 in 0.04 in 0.36 in (2003)
Month to date precipitation 1.47 0.97  
Year to date precipitation 12.64 15.48  
Snow  
Snow 0.00 in 0.40 in 4.80 in (2003)
Month to date snowfall 2.3 9.2  
Since 1 July snowfall 9.4 14.4  
Since 1 September snowfall 9.4 14.4  
Snow Depth 1.00 in    
Sea Level Pressure  
Sea Level Pressure 29.60 in    
Wind  
Wind Speed 12 mph (North)    
Max Wind Speed 23 mph    
Max Gust Speed 28 mph    
Visibility 10 miles    
Events      
T = Trace of Precipitation, MM = Missing Value Source: NWS Daily Summary

Daily Weather History Graph

Daily Weather History Graph

Search for Another Location

Airport:

Trip Planner

Search our weather history database for the weather conditions in past years. The results will help you decide how hot, cold, wet, or windy it might be!

Date:

Astronomy

Nov. 23, 2010 Rise Set
Actual Time 11:01 AM AKST 4:34 PM AKST
Civil Twilight 9:54 AM AKST 5:41 PM AKST
Nautical Twilight 8:49 AM AKST 6:45 PM AKST
Astronomical Twilight 7:51 AM AKST 7:44 PM AKST
Moon 5:28 PM AKST 2:13 PM AKST
Length of Visible Light 7h 47m
Length of Day
5h 33m
Waning Gibbous, 95% of the Moon is Illuminated
Nov 23
Waning Gibbous
Nov 28
Last Quarter
Dec 5
New
Dec 13
First Quarter
Dec 20
Full

Hourly Weather History & Observations

Time (AKST) Temp. Windchill Dew Point Humidity Pressure Visibility Wind Dir Wind Speed Gust Speed Precip Events Conditions
12:53 AM 25.0 °F 17.1 °F 23.0 °F 92% 29.79 in 10.0 mi NW 6.9 mph - N/A   Scattered Clouds
1:53 AM 28.0 °F 21.7 °F 24.1 °F 85% 29.77 in 10.0 mi North 5.8 mph - N/A   Mostly Cloudy
2:25 AM 28.4 °F 23.3 °F 24.8 °F 86% 29.76 in 10.0 mi North 4.6 mph - N/A   Mostly Cloudy
2:53 AM 28.9 °F 20.4 °F 25.0 °F 85% 29.75 in 10.0 mi North 9.2 mph - N/A   Overcast
3:53 AM 30.0 °F 22.4 °F 25.0 °F 82% 29.74 in 10.0 mi North 8.1 mph - N/A   Overcast
4:53 AM 28.9 °F 20.4 °F 24.1 °F 82% 29.72 in 10.0 mi North 9.2 mph - N/A   Overcast
5:53 AM 28.9 °F 21.9 °F 24.1 °F 82% 29.70 in 10.0 mi NNW 6.9 mph - N/A   Mostly Cloudy
6:53 AM 28.9 °F 19.8 °F 21.9 °F 75% 29.68 in 10.0 mi North 10.4 mph - N/A   Mostly Cloudy
7:53 AM 28.0 °F 20.0 °F 21.9 °F 78% 29.67 in 10.0 mi North 8.1 mph - N/A   Mostly Cloudy
8:53 AM 28.9 °F 19.8 °F 21.9 °F 75% 29.65 in 10.0 mi North 10.4 mph - N/A   Mostly Cloudy
9:53 AM 28.4 °F 18.0 °F 21.2 °F 74% 29.63 in 10.0 mi North 12.7 mph - N/A   Scattered Clouds
10:53 AM 28.9 °F 17.3 °F 21.0 °F 72% 29.62 in 10.0 mi North 16.1 mph - N/A   Overcast
11:53 AM 28.9 °F 17.3 °F 21.0 °F 72% 29.62 in 10.0 mi NNE 16.1 mph 21.9 mph N/A   Overcast
12:53 PM 28.9 °F 18.2 °F 21.0 °F 72% 29.61 in 10.0 mi NNE 13.8 mph - N/A   Overcast
1:53 PM 28.0 °F 14.3 °F 21.0 °F 75% 29.57 in 10.0 mi NNE 21.9 mph 26.5 mph N/A   Overcast
2:53 PM 28.0 °F 16.1 °F 19.9 °F 72% 29.55 in 10.0 mi NNE 16.1 mph - N/A   Overcast
3:53 PM 27.0 °F 14.7 °F 19.0 °F 72% 29.53 in 10.0 mi NNE 16.1 mph 21.9 mph N/A   Overcast
4:53 PM 27.0 °F 15.6 °F 19.0 °F 72% 29.52 in 10.0 mi North 13.8 mph - N/A   Overcast
5:53 PM 27.0 °F 18.0 °F 19.0 °F 72% 29.50 in 10.0 mi North 9.2 mph - N/A   Overcast
6:53 PM 27.0 °F 17.3 °F 19.0 °F 72% 29.48 in 10.0 mi North 10.4 mph - N/A   Overcast
7:53 PM 27.0 °F 14.7 °F 18.0 °F 69% 29.45 in 10.0 mi North 16.1 mph - N/A   Overcast
8:53 PM 27.0 °F 16.7 °F 18.0 °F 69% 29.45 in 10.0 mi North 11.5 mph - N/A   Overcast
9:53 PM 27.0 °F 14.7 °F 18.0 °F 69% 29.42 in 10.0 mi North 16.1 mph 21.9 mph N/A   Overcast
10:53 PM 27.0 °F 16.7 °F 18.0 °F 69% 29.42 in 10.0 mi North 11.5 mph 23.0 mph N/A   Overcast
11:53 PM 26.1 °F 14.0 °F 18.0 °F 71% 29.40 in 10.0 mi North 15.0 mph - N/A   Overcast